Regional Weather Roundup
Issued by NWS Charleston, WV

Home | Current Version | Previous Version | Graphics & Text | Print | Product List | Glossary On
Versions: 1 2 3 4 5 6 7 8 9 10 11 12 13 14 15 16 17 18 19 20 21 22 23 24 25 26 27 28 29 30 31 32 33 34 35 36 37 38 39 40 41 42 43 44 45 46 47 48 49 50
000
ASUS41 KRLX 081210
RWRRLX
West Virginia Regional Weather Roundup
National Weather Service Charleston WV
700 AM EST THU DEC 08 2016

Note: "fair" indicates few or no clouds below 12,000 feet with no
significant weather and/or obstructions to visibility.

WVZ003-081300-
Northern Panhandle of West Virginia

CITY           SKY/WX    TMP DP  RH WIND       PRES   REMARKS
WHEELING       CLOUDY    30  21  69 W8        30.04S
$$

WVZ009-081300-
Northwest West Virginia

CITY           SKY/WX    TMP DP  RH WIND       PRES   REMARKS
PARKERSBURG    CLOUDY    33  21  61 W6        30.15R
$$

WVZ006-081300-
Western West Virginia

CITY           SKY/WX    TMP DP  RH WIND       PRES   REMARKS
HUNTINGTON     CLOUDY    34  23  64 W6        30.18R
$$

WVZ015-081300-
West Central West Virginia

CITY           SKY/WX    TMP DP  RH WIND       PRES   REMARKS
CHARLESTON     CLOUDY    34  25  69 SW8       30.15S
$$

WVZ022-031-081300-
North Central West Virginia

CITY           SKY/WX    TMP DP  RH WIND       PRES   REMARKS
CLARKSBURG     CLOUDY    32  24  72 SW7       30.08R
MORGANTOWN     CLOUDY    33  21  61 SW6       30.06S
$$

WVZ025-035-042-045-081300-
Southern West Virginia

CITY           SKY/WX    TMP DP  RH WIND       PRES   REMARKS
BECKLEY        CLOUDY    30  20  66 NW7       30.08R
LOGAN          CLOUDY    32  23  69 W6G12     30.14R
BLUEFIELD      CLOUDY    28  22  78 W7        30.08R
LEWISBURG      CLOUDY    32  19  60 W7        30.07R
$$

WVZ047-081300-
Northern Mountains of West Virginia

CITY           SKY/WX    TMP DP  RH WIND       PRES   REMARKS
ELKINS         MOCLDY    30  20  66 S3        30.06S
$$

WVZ052-081300-
Eastern Panhandle of West Virginia

CITY           SKY/WX    TMP DP  RH WIND       PRES   REMARKS
MARTINSBURG    CLOUDY    36  28  73 SW7       30.04R
PETERSBURG     CLOUDY    29  28  93 E3        30.05F
$$




USA.gov is the U.S. government's official web portal to all federal, state and local government web resources and services.